MINOTAUR 4 DEB, 52037

Orbit data source: Space-Track

MINOTAUR 4 DEB, 52037 is space debris in LEO originally from a launch on Wed, 15 Jul 2020 UTC launched from the Wallops Island (WLPIS). Debris objects in space refer to the collection of defunct objects orbiting the Earth. Examples of debris include non-operational satellites, rocket bodies, and fragments generated from explosions, collisions, or faulty payload assembly.

Loading next visibility...
Identifier
52037, 2020-046AB
Orbit
LEO
Country
Flag of USUS
Related business
Manufacturer
NGIS FSG
Mission
Spacecraft
Bus & Motor
Unknown
Mass
Unknown
Launch date (UTC)
2020-07-15 (5 years ago)
Launch vehicle
Unknown
Launch site
Wallops Island (WLPIS)
Object type
Payload
Rocket body
Debris
Shape & HBR
Unknown
Radar Cross Section
Small (<0.1 m²)

Expand to show TLE details & history
Last TLE update: 19 hours ago

TLE from 19 hours ago
0 MINOTAUR 4 DEB
1 52037U 20046AB  25260.50400459  .00001198  00000-0  10709-3 0  9990
2 52037  53.9814 355.2219 0007554 339.2620  20.8072 15.03384215200847
Epoch: 2025-09-17T12:05Z
TLE epoch observation values (Epoch: 2025-09-17T12:05:45.996Z)
Latitude
-0.00003°
Longitude
177.10122°
Altitude
552.55 km
Speed
7.589 km/s
True Right ascension
23h 40m 53s
True Declination
0° 00' 00"
Sunlit
Object was in full shadow at epoch
Visualization orbit readout
Latitude
Unknown
Longitude
Unknown
Altitude
Unknown
Speed
Unknown
Apparent Right ascension
Unknown
Apparent Declination
Unknown
Sunlit
N/A
Visualization observer readout
Local Sidereal Time
00:24:19
Azimuth
Unknown
Elevation
Unknown
Doppler factor
Unknown
Orbital elements
Apogee altitude
561.831 km
Perigee altitude
551.354 km
Semi-major axis
6,934.73 km
Eccentricity
0.00076
Inclination
53.9814°
RAAN
355.2219°
Arg. of periapsis
339.262°
True anomaly
20.83798°
Mean anomaly
20.8072°
Eccentric anomaly
20.82259°
Mean motion
3.75836 °/min
Orbital period
95.79 mins
BSTAR
0.00010709
Loading maneuver chart data...
Computing Atmospheric mass density...
Loading historical data...
Loading historical data...
Loading historical data...
Loading historical data...
Loading historical data...
Loading historical data...
Loading historical data...

Documentation

Showing up to 5 results
|